Location: 10033 Water Well
(34.0865°N, 106.8959°W)
Time: 17:10:22
(UTC+00:00)

Cosmos 1959 Rocket - Pass Details

Date: 13 January 2026
Orbit: 946 x 996 km, 83.0° (Epoch: 10 February)

Event Time Altitude Azimuth Distance (km) Brightness Sun altitude
Rises 01:16:48 0° 356° (N) 3,622 7.3 -12.0°
Reaches altitude 10° 01:19:19 10° 359° (N) 2,676 6.6 -12.5°
Maximum altitude 01:25:24 71° 83° (E) 1,003 4.4 -13.7°
Drops below altitude 10° 01:31:32 10° 167° (SSE) 2,685 6.9 -14.9°
Sets 01:34:02 0° 170° (S) 3,635 7.6 -15.4°
